Weather Roundup
Issued by NWS Chicago, IL

Home | Current Version | Previous Version | Text Only | Print | Product List | Glossary On
Versions: 1 2 3 4 5 6 7 8 9 10 11 12 13 14 15 16 17 18 19 20 21 22 23 24 25 26 27 28 29 30 31 32 33 34 35 36 37 38 39 40 41 42 43 44 45 46 47 48 49 50
000
NZUS59 KLOT 301721
HRRLOT

CHICAGO AREA WEATHER ROUNDUP
NATIONAL WEATHER SERVICE CHICAGO/ROMEOVILLE IL
1200 PM CDT TUE JUN 30 2015

NOTE: "FAIR" INDICATES FEW OR NO CLOUDS BELOW 12,000 FEET WITH NO
SIGNIFICANT WEATHER AND/OR OBSTRUCTIONS TO VISIBILITY.

* THESE STATIONS ARE NOT UNDER NWS QUALITY CONTROL. THEY ALSO MAY NOT
  REPORT WEATHER SUCH AS PRECIPITATION OR FOG.

ILZ005-006-012>014-019>023-301800-
NORTHEAST ILLINOIS

CITY           SKY/WX    TMP DP  RH WIND       PRES   REMARKS
OHARE          MOSUNNY   72  61  68 NW12      29.82R
MIDWAY         MOSUNNY   76  61  59 W9        29.81S
AURORA         MOSUNNY   74  62  66 NW9       29.84S
LANSING*       MOSUNNY   75  59  56 NW7       29.82S
JOLIET*        SUNNY     76  64  66 CALM      29.83S
WAUKEGAN       PTSUNNY   70  60  70 VRB7      29.82R
DUPAGE AIRPORT PTSUNNY   72  61  68 NW12      29.83R
WHEELING       PTSUNNY   75  60  59 NW10G16   29.83S
KANKAKEE*      SUNNY     75  64  69 W10       29.83F
MORRIS*        SUNNY     75  63  66 W9        29.81F
LEWIS AIRPORT* SUNNY     73  62  66 NW8       29.83S
NORTHERLY IS     N/A     70  62  76 E7          N/A
$$

WIZ051-052-058>065-066-070>072-301800-
SOUTHEAST WISCONSIN

CITY           SKY/WX    TMP DP  RH WIND       PRES   REMARKS
MILWAUKEE      CLOUDY    71  58  63 NW13G22   29.81S
KENOSHA*       CLOUDY    71  60  68 NW12      29.83R
RACINE*        CLOUDY    71  59  65 NW12      29.83R
BURLINGTON     MOSUNNY   69  59  70 NW13G18   29.84R
WAUKESHA       CLOUDY    66  59  77 NW13G18   29.85R
WEST BEND      CLOUDY    70  57  64 NW14      29.83R
$$

INZ001>003-010>013-019-020-301800-
NORTHWEST INDIANA

CITY           SKY/WX    TMP DP  RH WIND       PRES   REMARKS
GARY*          MOSUNNY  N/A N/A N/A W10       29.82S
MICHIGAN CITY* NOT AVBL
RENSSELAER*    NOT AVBL
VALPARAISO     PTSUNNY   74  61  63 SW8       29.82S
$$

LMZ740>746-301800-
SOUTHERN LAKE MICHIGAN

STATION/POSITION TIME  SKY/WX   TEMP WIND        PRES    VSBY
                                AIR  DIR/SP/G
                 (UTC)          (F)  (DEG/KT/KT) (MB)    (MI)
HARRISON CRIB    1700            66   70/  4/  5   N/A
BURNHAM HARBOR   1700            69   60/  5/ 10   N/A
CALUMET HARBOR   1600            74  290/  4/  7   N/A
BURNS HARBOR     1600            67   CALM  /  1 1010.2F
MICHIGAN CITY    1700            67  320/  5/  5   N/A
$$

ABBREVIATIONS USED IN REMARKS
   TC - TEMPERATURE IN CELSIUS
  WCI - WIND CHILL INDEX
   HX - HEAT INDEX
  VSB - VISIBILITY
$$



USA.gov is the U.S. government's official web portal to all federal, state and local government web resources and services.